Flag for Canada Weather past 2 weeks in Maple Ridge, British Columbia, Canada

Now
36 °F

Chilly.


Feels Like: 36 °F
Forecast: 37 / 45 °F
Wind: 1 mph from Southwest

Location: P. Meadows Coastal Station

Current Time: Dec 22, 2014 at 8:44:13 AM

Latest Report: Dec 22, 2014 at 8:00 AM


Visibility: N/A

Pressure: 30.28 "Hg

Humidity: 100%

Dew point: 36 °F

Location of Maple RidgeLocation

Historic Weather in Maple Ridge — Graph

°F

Maple Ridge temperature yesterday

Maximum temperature yesterday: 49 °F (at 12:00 AM)
Minimum temperature yesterday: 38 °F (at 9:00 AM)
Average temperature yesterday: 43 °F

Past Weeks' High & Low Weather Summary

 TemperatureHumidityPressure
High61 °F (Dec 9, 9:00 AM)100% (Dec 7, 8:00 AM)30.26 "Hg (Dec 7, 8:00 AM)
Low27 °F (Dec 15, 6:00 AM)62% (Dec 11, 11:00 PM)29.18 "Hg (Dec 11, 5:00 PM)
Average44 °F92%29.82 "Hg
* Reported Dec 7 7:00 AM — Dec 22 7:00 AM, Maple Ridge, Weather by CustomWeather, © 2014

Note: Actual official high and low records may vary slightly from our data, if they occured in-between our weather recording intervals... More about our weather records

Advertising

Maple Ridge weather history for previous 24 hours

 ConditionsComfort  
Time TempWeatherWind HumidityBarometerVisibility
7:00 AM
Dec 22
35 °FChilly.1 mph100%30.24 "HgN/A
6:00 AM35 °FChilly.1 mph100%30.22 "HgN/A
5:00 AM34 °FChilly.No wind100%30.18 "HgN/A
4:00 AM35 °FChilly.No wind100%30.16 "HgN/A
3:00 AM38 °FChilly.1 mph97%30.14 "HgN/A
2:00 AM39 °FChilly.1 mph94%30.11 "HgN/A
1:00 AM41 °FQuite cool.5 mph90%30.08 "HgN/A
12:00 AM40 °FQuite cool.1 mph98%30.06 "HgN/A
11:00 PM
Dec 21
40 °FQuite cool.1 mph99%30.04 "HgN/A
10:00 PM39 °FChilly.No wind99%30.03 "HgN/A
9:00 PM40 °FChilly.2 mph99%30.01 "HgN/A
8:00 PM41 °FQuite cool.1 mph98%30.00 "HgN/A
7:00 PM40 °FQuite cool.2 mph100%30.00 "HgN/A
6:00 PM43 °FQuite cool.1 mph98%29.99 "HgN/A
5:00 PM45 °FCool.1 mph97%29.97 "HgN/A
4:00 PM46 °FCool.1 mph97%29.96 "HgN/A
3:00 PM47 °FCool.No wind95%29.93 "HgN/A
2:00 PM48 °FCool.1 mph90%29.92 "HgN/A
1:00 PM46 °FCool.1 mph98%29.91 "HgN/A
12:00 PM45 °FQuite cool.1 mph99%29.89 "HgN/A
11:00 AM42 °FQuite cool.2 mph99%29.88 "HgN/A
10:00 AM40 °FChilly.No wind99%29.86 "HgN/A
9:00 AM38 °FChilly.1 mph99%29.83 "HgN/A
8:00 AM38 °FChilly.No wind99%29.79 "HgN/A
Weather by CustomWeather, © 2014

See weather overviewHow to use our weather pages